Time,TemperatureF,DewpointF,PressureIn,WindDirection,WindDirectionDegrees,WindSpeedMPH,WindSpeedGustMPH,Humidity,HourlyPrecipIn,Conditions,Clouds,dailyrainin,SoftwareType,DateUTC
2013-02-19 00:00:00,15.0,-27.0,-100.00,South,187,14.0,19.0,12,-99.99,,,-99.99,,2013-02-19 07:00:00,
2013-02-19 00:42:00,15.0,-27.0,-100.00,South,187,14.0,19.0,12,-99.99,,,-99.99,,2013-02-19 07:42:00,
2013-02-19 00:52:00,15.0,-27.0,-100.00,South,187,14.0,19.0,12,-99.99,,,-99.99,,2013-02-19 07:52:00,
2013-02-19 01:00:00,13.0,-23.0,-100.00,South,185,18.0,27.0,17,-99.99,,,-99.99,,2013-02-19 08:00:00,
2013-02-19 01:42:00,13.0,-23.0,-100.00,South,185,18.0,27.0,17,-99.99,,,-99.99,,2013-02-19 08:42:00,
2013-02-19 01:52:00,13.0,-23.0,-100.00,South,185,18.0,27.0,17,-99.99,,,-99.99,,2013-02-19 08:52:00,
2013-02-19 02:00:00,14.0,-30.0,-100.00,South,191,23.0,28.0,11,-99.99,,,-99.99,,2013-02-19 09:00:00,
2013-02-19 02:42:00,14.0,-30.0,-100.00,South,191,23.0,28.0,11,-99.99,,,-99.99,,2013-02-19 09:42:00,
2013-02-19 02:53:00,14.0,-30.0,-100.00,South,191,23.0,28.0,11,-99.99,,,-99.99,,2013-02-19 09:53:00,
2013-02-19 03:00:00,15.0,-13.0,-100.00,South,188,25.0,32.0,27,-99.99,,,-99.99,,2013-02-19 10:00:00,
2013-02-19 03:42:00,15.0,-13.0,-100.00,South,188,25.0,32.0,27,-99.99,,,-99.99,,2013-02-19 10:42:00,
2013-02-19 03:52:00,15.0,-13.0,-100.00,South,188,25.0,32.0,27,-99.99,,,-99.99,,2013-02-19 10:52:00,
2013-02-19 04:00:00,15.0,-2.0,-100.00,SSW,197,27.0,35.0,47,-99.99,,,-99.99,,2013-02-19 11:00:00,
2013-02-19 04:42:00,15.0,-2.0,-100.00,SSW,197,27.0,35.0,47,-99.99,,,-99.99,,2013-02-19 11:42:00,
2013-02-19 04:52:00,15.0,-2.0,-100.00,SSW,197,27.0,35.0,47,-99.99,,,-99.99,,2013-02-19 11:52:00,
2013-02-19 05:00:00,14.0,-2.0,-100.00,South,186,24.0,32.0,48,-99.99,,,-99.99,,2013-02-19 12:00:00,
2013-02-19 05:42:00,14.0,-2.0,-100.00,South,186,24.0,32.0,48,-99.99,,,-99.99,,2013-02-19 12:42:00,
2013-02-19 05:52:00,14.0,-2.0,-100.00,South,186,24.0,32.0,48,-99.99,,,-99.99,,2013-02-19 12:52:00,
2013-02-19 06:00:00,14.0,3.0,-100.00,South,182,27.0,32.0,61,-99.99,,,-99.99,,2013-02-19 13:00:00,
2013-02-19 06:42:00,14.0,3.0,-100.00,South,182,27.0,32.0,61,-99.99,,,-99.99,,2013-02-19 13:42:00,
2013-02-19 06:52:00,14.0,3.0,-100.00,South,182,27.0,32.0,61,-99.99,,,-99.99,,2013-02-19 13:52:00,
2013-02-19 07:00:00,13.0,4.0,-100.00,South,185,28.0,37.0,68,-99.99,,,-99.99,,2013-02-19 14:00:00,
2013-02-19 07:42:00,13.0,4.0,-100.00,South,185,28.0,37.0,68,-99.99,,,-99.99,,2013-02-19 14:42:00,
2013-02-19 07:52:00,13.0,4.0,-100.00,South,185,28.0,37.0,68,-99.99,,,-99.99,,2013-02-19 14:52:00,
2013-02-19 08:00:00,13.0,2.0,-100.00,South,180,29.0,37.0,60,-99.99,,,-99.99,,2013-02-19 15:00:00,
2013-02-19 08:42:00,13.0,2.0,-100.00,South,180,29.0,37.0,60,-99.99,,,-99.99,,2013-02-19 15:42:00,
2013-02-19 08:52:00,13.0,2.0,-100.00,South,180,29.0,37.0,60,-99.99,,,-99.99,,2013-02-19 15:52:00,
2013-02-19 09:00:00,14.0,0.0,-100.00,South,174,28.0,37.0,51,-99.99,,,-99.99,,2013-02-19 16:00:00,
2013-02-19 09:42:00,14.0,0.0,-100.00,South,174,28.0,37.0,51,-99.99,,,-99.99,,2013-02-19 16:42:00,
2013-02-19 09:52:00,14.0,0.0,-100.00,South,174,28.0,37.0,51,-99.99,,,-99.99,,2013-02-19 16:52:00,
2013-02-19 10:00:00,15.0,-2.0,-100.00,SSE,166,24.0,35.0,45,-99.99,,,-99.99,,2013-02-19 17:00:00,
2013-02-19 10:42:00,15.0,-2.0,-100.00,SSE,166,24.0,35.0,45,-99.99,,,-99.99,,2013-02-19 17:42:00,
2013-02-19 10:52:00,15.0,-2.0,-100.00,SSE,166,24.0,35.0,45,-99.99,,,-99.99,,2013-02-19 17:52:00,
2013-02-19 11:00:00,14.0,-2.0,-100.00,SSE,161,28.0,43.0,47,-99.99,,,-99.99,,2013-02-19 18:00:00,
2013-02-19 11:42:00,14.0,-2.0,-100.00,SSE,161,28.0,43.0,47,-99.99,,,-99.99,,2013-02-19 18:42:00,
2013-02-19 11:52:00,14.0,-2.0,-100.00,SSE,161,28.0,43.0,47,-99.99,,,-99.99,,2013-02-19 18:52:00,
2013-02-19 12:00:00,14.0,0.0,-100.00,SSE,153,26.0,37.0,51,-99.99,,,-99.99,,2013-02-19 19:00:00,
2013-02-19 12:42:00,14.0,0.0,-100.00,SSE,153,26.0,37.0,51,-99.99,,,-99.99,,2013-02-19 19:42:00,
2013-02-19 12:52:00,14.0,0.0,-100.00,SSE,153,26.0,37.0,51,-99.99,,,-99.99,,2013-02-19 19:52:00,
2013-02-19 13:00:00,15.0,1.0,-100.00,SSE,161,27.0,42.0,53,-99.99,,,-99.99,,2013-02-19 20:00:00,
2013-02-19 13:42:00,15.0,1.0,-100.00,SSE,161,27.0,42.0,53,-99.99,,,-99.99,,2013-02-19 20:42:00,
2013-02-19 13:52:00,15.0,1.0,-100.00,SSE,161,27.0,42.0,53,-99.99,,,-99.99,,2013-02-19 20:52:00,
2013-02-19 14:00:00,15.0,0.0,-100.00,South,177,26.0,46.0,51,-99.99,,,-99.99,,2013-02-19 21:00:00,
2013-02-19 14:42:00,15.0,0.0,-100.00,South,177,26.0,46.0,51,-99.99,,,-99.99,,2013-02-19 21:42:00,
2013-02-19 14:52:00,15.0,0.0,-100.00,South,177,26.0,46.0,51,-99.99,,,-99.99,,2013-02-19 21:52:00,
2013-02-19 15:00:00,15.0,1.0,-100.00,South,178,25.0,36.0,53,-99.99,,,-99.99,,2013-02-19 22:00:00,
2013-02-19 15:42:00,15.0,1.0,-100.00,South,178,25.0,36.0,53,-99.99,,,-99.99,,2013-02-19 22:42:00,
2013-02-19 15:52:00,15.0,1.0,-100.00,South,178,25.0,36.0,53,-99.99,,,-99.99,,2013-02-19 22:52:00,
2013-02-19 16:00:00,15.0,3.0,-100.00,SSE,155,26.0,38.0,58,-99.99,,,-99.99,,2013-02-19 23:00:00,
2013-02-19 16:42:00,15.0,3.0,-100.00,SSE,155,26.0,38.0,58,-99.99,,,-99.99,,2013-02-19 23:42:00,
2013-02-19 16:52:00,15.0,3.0,-100.00,SSE,155,26.0,38.0,58,-99.99,,,-99.99,,2013-02-19 23:52:00,
2013-02-19 17:00:00,14.0,2.0,-100.00,SSE,163,24.0,43.0,57,-99.99,,,-99.99,,2013-02-20 00:00:00,
2013-02-19 17:42:00,14.0,2.0,-100.00,SSE,163,24.0,43.0,57,-99.99,,,-99.99,,2013-02-20 00:42:00,
2013-02-19 17:52:00,14.0,2.0,-100.00,SSE,163,24.0,43.0,57,-99.99,,,-99.99,,2013-02-20 00:52:00,
2013-02-19 18:00:00,14.0,2.0,-100.00,SSE,157,31.0,50.0,57,-99.99,,,-99.99,,2013-02-20 01:00:00,
2013-02-19 18:42:00,14.0,2.0,-100.00,SSE,157,31.0,50.0,57,-99.99,,,-99.99,,2013-02-20 01:42:00,
2013-02-19 18:52:00,14.0,2.0,-100.00,SSE,157,31.0,50.0,57,-99.99,,,-99.99,,2013-02-20 01:52:00,
2013-02-19 19:00:00,14.0,2.0,-100.00,SSE,158,27.0,40.0,57,-99.99,,,-99.99,,2013-02-20 02:00:00,
2013-02-19 19:42:00,14.0,2.0,-100.00,SSE,158,27.0,40.0,57,-99.99,,,-99.99,,2013-02-20 02:42:00,
2013-02-19 19:52:00,14.0,2.0,-100.00,SSE,158,27.0,40.0,57,-99.99,,,-99.99,,2013-02-20 02:52:00,
2013-02-19 20:00:00,14.0,2.0,-100.00,SSE,163,27.0,42.0,55,-99.99,,,-99.99,,2013-02-20 03:00:00,
2013-02-19 20:42:00,14.0,2.0,-100.00,SSE,163,27.0,42.0,55,-99.99,,,-99.99,,2013-02-20 03:42:00,
2013-02-19 20:52:00,14.0,2.0,-100.00,SSE,163,27.0,42.0,55,-99.99,,,-99.99,,2013-02-20 03:52:00,
2013-02-19 21:00:00,15.0,1.0,-100.00,SSE,166,27.0,41.0,55,-99.99,,,-99.99,,2013-02-20 04:00:00,
2013-02-19 21:42:00,15.0,1.0,-100.00,SSE,166,27.0,41.0,55,-99.99,,,-99.99,,2013-02-20 04:42:00,
2013-02-19 21:52:00,15.0,1.0,-100.00,SSE,166,27.0,41.0,55,-99.99,,,-99.99,,2013-02-20 04:52:00,
2013-02-19 22:00:00,15.0,1.0,-100.00,SSE,165,24.0,39.0,53,-99.99,,,-99.99,,2013-02-20 05:00:00,
2013-02-19 22:43:00,15.0,1.0,-100.00,SSE,165,24.0,39.0,53,-99.99,,,-99.99,,2013-02-20 05:43:00,
2013-02-19 22:52:00,15.0,1.0,-100.00,SSE,165,24.0,39.0,53,-99.99,,,-99.99,,2013-02-20 05:52:00,
2013-02-19 23:00:00,15.0,1.0,-100.00,SSE,163,24.0,34.0,51,-99.99,,,-99.99,,2013-02-20 06:00:00,
2013-02-19 23:42:00,15.0,1.0,-100.00,SSE,163,24.0,34.0,51,-99.99,,,-99.99,,2013-02-20 06:42:00,
2013-02-19 23:52:00,15.0,1.0,-100.00,SSE,163,24.0,34.0,51,-99.99,,,-99.99,,2013-02-20 06:52:00,